Starlink 3389

operational
NORAD ID: 51124 Int'l Des: 2022-005 Owner: SPXS Country: US Constellation: starlink
LEOCIRCULAR

Über Starlink 3389

Beschreibung wird geladen...

Live-Position

3D-Globus wird geladen...

Nächste Überflüge

Höhenverlauf

Altitude vs Time

uPlot chart will show altitude changes over time

Zweizeiliger Elementsatz

1 51124U 22005W 25257.56210328 -.00002515 00000-0 -13999-3 0 9999
2 51124 53.2191 9.7900 0001324 90.9395 269.1749 15.08831054202159
Epoch: 14. Sept. 2025 • Age: 21 hours

Aktueller Status

Höhe 542.0 km
Geschwindigkeit 7.60 km/s
Subsatellitenpunkt 36.81°N, 3.73°W
Startdatum 19. Jan. 2022
Alter 3.6 years
Typ internet

Technische Details

Klassifizierung Payload
Masse 297.00 kg
Trockenmasse 275.00 kg
Gesamtmasse 297.00 kg
Länge 0.20 m
Durchmesser 2.80 m
Spannweite 9.00 m
Form Box + pan
Hersteller SPXS
Bus-Typ Starlink
Phasenstatus In Orbit
Besitzer/Staat SPXS/US

Große Konstellationen

Loading constellations...